Location: Mohawk View
(42.7837°N, 73.7885°W)
Time: 16:55:57
(UTC+00:00)

Okean 1-7 Rocket - Pass Details

Date: 17 June 2021
Orbit: 616 x 649 km, 82.5° (Epoch: 02 August)

Event Time Altitude Azimuth Distance (km) Brightness Sun altitude
Exits shadow 03:58:29 36° 93° (E) 1,003 4.4 -22.5°
Maximum altitude 03:58:32 36° 91° (E) 1,003 4.4 -22.5°
Drops below altitude 10° 04:02:38 10° 25° (NNE) 2,018 6.9 -22.7°
Sets 04:04:59 0° 17° (NNE) 2,925 8.0 -22.8°
